Flag for Cayman Islands Weather past 2 weeks in George Town, Cayman Islands

Now
77 °F

Passing clouds.


Feels Like: 79 °F
Forecast: 76 / 78 °F
Wind: 9 mph from Northeast

Location: Owen Roberts Airportgrand Cayman

Current Time: Jan 30, 2015 at 10:11:36 AM

Latest Report: Jan 30, 2015 at 9:00 AM


Visibility: N/A

Pressure: 30.07 "Hg

Humidity: 74%

Dew point: 68 °F

Location of George TownLocation

Historic Weather in George Town — Graph

°F

George Town temperature yesterday

Maximum temperature yesterday: 79 °F (at 1:00 PM)
Minimum temperature yesterday: 73 °F (at 6:00 AM)
Average temperature yesterday: 76 °F

Past Weeks' High & Low Weather Summary

 TemperatureHumidityPressure
High84 °F (Jan 16, 2:00 PM)100% (Jan 16, 5:54 AM)30.09 "Hg (Jan 16, 5:54 AM)
Low72 °F (Jan 16, 6:52 AM)54% (Jan 27, 2:00 PM)29.92 "Hg (Jan 20, 3:00 PM)
Average78 °F79%30.01 "Hg
* Reported Jan 15 8:00 AM — Jan 30 8:00 AM, George Town, Weather by CustomWeather, © 2014

Note: Actual official high and low records may vary slightly from our data, if they occured in-between our weather recording intervals... More about our weather records

Advertising

George Town weather history for previous 24 hours

 ConditionsComfort  
Time TempWeatherWind HumidityBarometerVisibility
8:00 AM
Jan 30
75 °FPassing clouds.8 mph78%30.07 "HgN/A
7:00 AM75 °FPassing clouds.12 mph78%30.04 "HgN/A
6:00 AM75 °FPassing clouds.10 mph78%30.04 "HgN/A
10:00 PM
Jan 29
75 °FPassing clouds.12 mph69%30.07 "HgN/A
9:00 PM75 °FPassing clouds.12 mph69%30.07 "HgN/A
8:00 PM75 °FPassing clouds.12 mph69%30.07 "HgN/A
7:00 PM75 °FPassing clouds.13 mph69%30.04 "HgN/A
6:00 PM77 °FPassing clouds.14 mph65%30.01 "HgN/A
5:00 PM77 °FScattered clouds.21 mph65%30.01 "HgN/A
4:00 PM79 °FPartly sunny.16 mph61%30.01 "HgN/A
3:00 PM79 °FPartly sunny.18 mph61%30.01 "HgN/A
2:00 PM79 °FPartly sunny.18 mph58%30.04 "HgN/A
1:00 PM79 °FPartly sunny.13 mph61%30.07 "HgN/A
12:00 PM77 °FPassing clouds.13 mph61%30.09 "HgN/A
11:00 AM75 °FScattered clouds.15 mph61%30.09 "HgN/A
10:00 AM75 °FPartly sunny.15 mph61%30.09 "HgN/A
Weather by CustomWeather, © 2014

See weather overviewHow to use our weather pages